Location: Central Falls
(41.8900°N, 71.3929°W)
Time: 19:38:46
(UTC+00:00)

Hubble Space Telescope - Visible Passes

Search period start: 21 September 2023 00:00
Search period end: 01 October 2023 00:00
Orbit: 522 x 525 km, 28.5° (Epoch: 21 September)

Date Brightness Start Highest point End Pass type
(mag) Time Alt. Az. Time Alt. Az. Time Alt. Az.
21 Sep 3.1 09:29:48 10° SSW 09:31:21 12° S 09:32:54 10° SSE visible
22 Sep 3.0 09:14:35 11° SSW 09:15:51 12° S 09:17:27 10° SSE visible
23 Sep 3.0 09:00:06 12° S 09:00:20 12° S 09:01:57 10° SSE visible
24 Sep 3.2 08:45:39 11° S 08:45:39 11° S 08:46:22 10° SSE visible
